Satellite-Ground Cal/Val Region Overpasses Predictions

Prediction of Satellite NPP Overpassing Cal/Val Region: PacNW

Region Location: (Latitude: 10.00, Longitude: 139.50) to (Latitude: 22.70, Longitude: 165.60).

Table of predicted overpasses for the next 14.0 days since TLE Epoch: 4/5/2013
Interval Starting Time Starting Location Ending Time Ending Location
1 04/06/2013 02:32:17 ( 10.05, 161.31) 04/06/2013 02:35:52 ( 22.67, 158.30)
2 04/06/2013 15:04:11 ( 22.65, 158.55) 04/06/2013 15:07:46 ( 10.03, 155.55)
3 04/07/2013 02:13:50 ( 12.08, 165.60) 04/07/2013 02:16:50 ( 22.65, 163.06)
4 04/07/2013 03:54:45 ( 10.03, 140.70) 04/07/2013 03:56:12 ( 15.14, 139.51)
5 04/07/2013 14:45:09 ( 22.67, 163.31) 04/07/2013 14:48:44 ( 10.05, 160.31)
6 04/08/2013 03:35:44 ( 10.01, 145.46) 04/08/2013 03:39:20 ( 22.68, 142.44)
7 04/08/2013 14:29:04 ( 12.37, 165.60) 04/08/2013 14:29:44 ( 10.02, 165.06)
8 04/08/2013 16:07:38 ( 22.69, 142.70) 04/08/2013 16:11:14 ( 10.01, 139.68)
9 04/09/2013 03:16:43 ( 10.04, 150.21) 04/09/2013 03:20:18 ( 22.66, 147.20)
10 04/09/2013 15:48:37 ( 22.66, 147.45) 04/09/2013 15:52:12 ( 10.04, 144.44)
11 04/10/2013 02:57:42 ( 10.02, 154.97) 04/10/2013 03:01:18 ( 22.70, 151.95)
12 04/10/2013 15:29:36 ( 22.68, 152.21) 04/10/2013 15:33:11 ( 10.06, 149.20)
13 04/11/2013 02:38:42 ( 10.05, 159.72) 04/11/2013 02:42:17 ( 22.67, 156.71)
14 04/11/2013 15:10:35 ( 22.64, 156.96) 04/11/2013 15:14:10 ( 10.02, 153.95)
15 04/12/2013 02:19:40 ( 10.03, 164.48) 04/12/2013 02:23:15 ( 22.65, 161.47)
16 04/12/2013 14:51:34 ( 22.66, 161.72) 04/12/2013 14:55:09 ( 10.04, 158.71)
17 04/13/2013 03:42:09 ( 10.01, 143.86) 04/13/2013 03:45:45 ( 22.69, 140.84)
18 04/13/2013 14:33:33 ( 19.11, 165.60) 04/13/2013 14:36:08 ( 10.00, 163.46)
19 04/13/2013 16:14:02 ( 22.68, 141.11) 04/13/2013 16:15:54 ( 16.11, 139.51)
20 04/14/2013 03:23:08 ( 10.05, 148.61) 04/14/2013 03:26:43 ( 22.67, 145.60)
21 04/14/2013 15:55:02 ( 22.64, 145.85) 04/14/2013 15:58:37 ( 10.02, 142.85)
22 04/15/2013 03:04:07 ( 10.03, 153.37) 04/15/2013 03:07:42 ( 22.65, 150.37)
23 04/15/2013 15:36:00 ( 22.66, 150.62) 04/15/2013 15:39:35 ( 10.04, 147.61)
24 04/16/2013 02:45:05 ( 10.01, 158.13) 04/16/2013 02:48:41 ( 22.69, 155.11)
25 04/16/2013 15:16:59 ( 22.68, 155.38) 04/16/2013 15:20:35 ( 10.00, 152.36)
26 04/17/2013 02:26:05 ( 10.05, 162.88) 04/17/2013 02:29:40 ( 22.67, 159.87)
27 04/17/2013 14:57:57 ( 22.70, 160.14) 04/17/2013 15:01:33 ( 10.02, 157.12)
28 04/18/2013 02:09:32 ( 18.79, 165.59) 04/18/2013 02:10:38 ( 22.66, 164.63)
29 04/18/2013 03:48:33 ( 10.04, 142.27) 04/18/2013 03:51:51 ( 21.66, 139.51)
30 04/18/2013 14:38:57 ( 22.66, 164.88) 04/18/2013 14:42:32 ( 10.04, 161.88)
31 04/18/2013 16:20:27 ( 22.65, 139.51) 04/18/2013 16:20:27 ( 22.65, 139.51)
32 04/19/2013 03:29:32 ( 10.02, 147.03) 04/19/2013 03:33:07 ( 22.64, 144.02)


NCC Satellite Cal/Val Overpasses Prediction Service
